Torna al catalogo

THORAD AGENA D DEB

AttivoLEO
NORAD 4614·DEBRIS·🇺🇸 United States

Lanciato Apr 8, 1970 da Vandenberg Space Force Base

Loading…

Prossimi Passaggi (prossime 24 ore)

TLE

AggiornatoSource: Space-Track

Epoca: Sep 14, 2026, 21:50 UTC

1 04614U 70025S   26257.90979279  .00000345  00000-0  30038-3 0  9992
2 04614 100.1025 289.6794 0078107 231.6853 127.7263 13.92598151839048

Traccia THORAD AGENA D DEB in tempo reale con AllMySat

Download on the App Store